Wind_Speed
67 65 69 71 69 66 64 66 60 55 58 54 51 50 48 50 49 50 52 52 45 38 43 51 52 50 53
67 65 63 65 60 63 66 69 68 66 62 66 60 54 53 50 53 59 54 57 57 52 51 53 55 53 53
66 72 71 70 72 73 74 73 68 67 65 65 63 60 60 62 60 65 61 64 64 59 60 56 58 58 57
75 75 71 71 72 71 73 74 76 72 71 68 68 66 68 68 68 70 72 65 63 61 57 56 59 61 61
77 82 81 76 72 76 78 69 68 75 74 76 75 69 71 74 72 72 72 70 67 61 57 58 59 64 67
75 74 84 83 81 76 75 75 74 77 77 75 75 78 75 75 78 78 75 71 66 64 66 63 62 63 66
76 76 78 83 84 75 77 75 79 81 84 84 81 76 78 77 79 78 70 68 69 71 72 68 67 70 71
85 80 81 82 77 81 79 81 82 88 90 89 87 83 83 82 83 84 79 74 74 78 78 78 74 74 76
83 79 82 82 83 80 76 80 82 81 85 86 84 84 83 87 89 81 84 87 83 86 87 84 83 85 83
66 70 79 80 80 82 83 84 86 87 83 82 81 80 80 81 86 91 91 90 90 90 90 90 86 91 91
60 64 68 71 75 74 76 79 80 82 84 86 86 88 88 87 87 88 88 90 91 93 92 92 92 96 96
60 61 63 66 67 70 75 79 80 79 78 80 81 85 87 89 90 91 92 95 98 101 102 100 98 99 100
72 74 74 76 73 74 76 76 76 77 79 81 83 84 87 90 90 91 93 94 96 98 99 101 102 104 105
83 83 83 84 84 86 86 86 87 87 88 88 86 87 88 89 90 92 95 97 98 100 103 103 102 102 102
92 92 93 94 94 95 96 95 95 97 98 97 96 97 96 95 93 90 91 94 97 100 101 101 100 101 102
86 86 87 87 90 92 93 96 97 99 101 102 102 103 104 102 101 100 99 97 97 97 100 101 101 100 101
75 77 79 81 84 84 86 88 90 94 97 101 104 106 106 106 106 107 106 105 104 102 102 101 100 99 101
Wind_Direction
239 245 245 246 250 252 252 254 249 258 263 258 254 258 261 262 262 270 270 264 262 260 257 263 273 265 265
236 246 240 244 248 251 254 254 255 255 255 262 268 264 256 259 264 266 261 260 271 270 274 272 270 265 262
240 244 246 244 246 250 253 254 255 256 256 259 259 258 257 257 258 256 258 263 266 265 267 267 258 257 257
245 245 240 244 248 248 248 252 255 255 257 259 260 259 260 259 256 260 260 264 264 266 261 262 257 256 258
245 241 242 242 239 242 249 253 252 254 253 258 257 257 259 261 262 263 265 262 263 262 263 266 266 261 260
245 245 243 242 241 246 246 244 254 254 254 257 255 257 259 259 260 263 262 260 258 261 263 266 266 263 260
247 247 246 241 243 245 243 247 246 245 242 252 257 255 256 257 261 260 260 258 261 264 265 264 263 262 265
247 249 251 252 247 244 246 249 249 245 248 252 251 251 253 257 261 261 260 259 260 265 267 265 260 260 262
248 248 247 249 247 247 250 251 253 255 254 253 253 254 255 256 257 259 262 256 259 262 262 264 264 262 262
250 253 255 257 258 257 259 258 257 256 258 259 255 258 260 260 259 257 257 257 259 263 263 263 262 261 262
265 263 260 257 255 256 256 257 257 257 258 259 258 259 261 261 260 260 259 260 261 262 263 263 262 262 265
263 264 264 263 262 263 263 263 261 259 258 258 258 258 257 258 259 259 259 261 263 264 264 265 264 264 264
265 265 266 265 263 264 265 263 263 265 265 264 263 259 257 258 259 259 259 260 260 261 260 261 263 264 264
267 267 265 266 265 265 266 264 262 263 264 264 263 263 264 263 261 259 259 259 259 260 260 261 263 264 264
269 268 270 269 268 267 266 265 263 262 262 262 262 262 262 263 263 262 261 261 262 262 263 263 264 264 265
268 267 267 265 264 263 262 262 261 261 260 260 259 260 259 260 260 260 261 261 261 262 262 263 263 264 264
267 266 265 264 263 261 261 259 259 259 258 258 258 257 257 257 256 257 257 258 257 258 258 259 260 262 264
Height
5702 5705 5707 5711 5715 5716 5718 5720 5723 5728 5733 5733 5736 5741 5742 5746 5747 5753 5757 5759 5760 5763 5767 5768 5770 5771 5772
5688 5691 5692 5697 5700 5702 5704 5706 5710 5715 5719 5721 5722 5727 5730 5732 5735 5739 5742 5743 5745 5749 5750 5753 5754 5755 5755
5671 5675 5679 5681 5684 5687 5689 5692 5695 5699 5704 5706 5708 5712 5716 5719 5722 5725 5726 5729 5732 5733 5734 5736 5737 5739 5741
5652 5657 5662 5664 5667 5670 5674 5676 5679 5682 5686 5689 5691 5694 5697 5700 5705 5707 5710 5712 5713 5715 5716 5718 5720 5723 5725
5632 5636 5643 5646 5650 5653 5656 5658 5661 5664 5668 5671 5674 5676 5679 5683 5685 5687 5689 5692 5694 5696 5698 5701 5703 5705 5707
5614 5617 5623 5626 5628 5633 5636 5638 5645 5649 5649 5652 5654 5658 5660 5662 5664 5666 5668 5672 5675 5677 5680 5681 5683 5685 5687
5594 5598 5602 5605 5610 5613 5615 5619 5625 5626 5628 5632 5636 5638 5640 5642 5645 5648 5651 5653 5655 5658 5659 5661 5662 5665 5667
5574 5578 5581 5585 5587 5591 5595 5598 5603 5606 5607 5612 5613 5617 5617 5620 5626 5629 5630 5632 5633 5635 5637 5639 5641 5643 5645
5551 5554 5558 5562 5566 5570 5573 5575 5579 5582 5584 5589 5591 5592 5593 5597 5600 5605 5607 5607 5608 5611 5614 5617 5617 5619 5622
5530 5533 5537 5539 5542 5545 5548 5552 5556 5559 5562 5567 5569 5569 5571 5574 5576 5578 5582 5584 5586 5588 5589 5591 5592 5593 5596
5511 5513 5516 5517 5519 5522 5525 5528 5531 5535 5536 5538 5543 5544 5546 5551 5552 5554 5556 5558 5560 5561 5563 5564 5566 5567 5569
5493 5495 5497 5499 5500 5501 5502 5503 5506 5510 5510 5513 5518 5519 5520 5523 5527 5527 5528 5530 5531 5534 5535 5536 5538 5539 5541
5473 5475 5477 5478 5480 5481 5482 5485 5486 5487 5487 5488 5491 5493 5493 5496 5499 5502 5501 5503 5502 5505 5505 5507 5509 5510 5512
5448 5451 5451 5452 5454 5455 5458 5459 5461 5464 5463 5464 5464 5464 5465 5468 5471 5475 5475 5476 5477 5476 5474 5476 5481 5483 5484
5418 5421 5423 5424 5425 5426 5427 5429 5431 5433 5434 5435 5435 5436 5437 5440 5443 5446 5446 5449 5449 5448 5445 5448 5451 5454 5454
5386 5387 5388 5390 5392 5395 5396 5397 5398 5400 5402 5401 5401 5402 5405 5410 5414 5416 5416 5417 5418 5419 5418 5420 5424 5425 5425
5358 5357 5358 5358 5360 5363 5363 5364 5366 5367 5368 5368 5368 5368 5369 5375 5381 5380 5381 5384 5386 5387 5387 5387 5393 5399 5396